Regional Weather Roundup
Issued by NWS

Home | Current Version | Previous Version | Graphics & Text | Print | Product List | Glossary On
Versions: 1 2 3 4 5 6 7 8 9 10 11 12 13 14 15 16 17 18 19 20 21 22 23 24 25 26 27 28 29 30 31 32 33 34 35 36 37 38 39 40 41 42 43 44 45 46 47 48 49 50
000
ASUS45 KPSR 171100
RWRAZ

PRELIMINARY ARIZONA REGIONAL HOURLY WEATHER ROUNDUP
NATIONAL WEATHER SERVICE PHOENIX AZ
400 AM MST WED SEP 17 2014

NOTE: FAIR INDICATES FEW OR NO CLOUDS BELOW 12,000 FEET WITH NO
SIGNIFICANT WEATHER AND/OR OBSTRUCTIONS TO VISIBILITY.

AZZ001>003-036-171200-
NORTHWEST ARIZONA

CITY           SKY/WX    TMP DP  RH WIND       PRES   REMARKS
KINGMAN        PTCLDY    73  58  59 CALM      29.96F
$$

AZZ004>008-015-016-018-171200-
NORTH CENTRAL ARIZONA

CITY           SKY/WX    TMP DP  RH WIND       PRES   REMARKS
GRAND CANYON   MOCLDY    60  51  72 E3        30.18F
PRESCOTT       CLOUDY    65  57  75 S5        30.07F
FLAGSTAFF      CLOUDY    57  54  89 N3        30.21S
PAYSON         CLOUDY    63  61  94 CALM      30.11S
PAGE           CLOUDY    74  53  48 S7        30.04S
$$

AZZ009>014-017-171200-
NORTHEAST ARIZONA

CITY           SKY/WX    TMP DP  RH WIND       PRES   REMARKS
WINSLOW        NOT AVBL
SAINT JOHNS    CLOUDY    61  60  97 NE3       30.13F
SHOW LOW       CLOUDY    55  55 100 S3        30.19F
$$

AZZ023-171200-
GREATER PHOENIX AREA

CITY           SKY/WX    TMP DP  RH WIND       PRES   REMARKS
PHOENIX        CLOUDY    81  67  62 E9        29.80F
LUKE AFB       CLOUDY    82  66  57 E5        29.80F
DEER VALLEY    CLOUDY    80  65  59 E6        29.82F
SCOTTSDALE     CLOUDY    81  66  60 E3        29.85S
$$

AZZ027-028-171200-
SOUTHWEST MARICOPA COUNTY AND PINAL COUNTY

CITY           SKY/WX    TMP DP  RH WIND       PRES   REMARKS
CASA GRANDE    CLOUDY    75  68  78 NE10      29.83S
$$

AZZ503-504-507>509-171200-
SOUTHEAST ARIZONA

CITY           SKY/WX    TMP DP  RH WIND       PRES   REMARKS
TUCSON         CLOUDY    75  67  76 SE10      29.90F
NOGALES        CLOUDY    68  65  90 CALM      29.94F
SIERRA VISTA   CLOUDY    64  64 100 SE12      30.01F
SAFFORD        CLOUDY    69  65  86 E9        29.96F
$$

AZZ020-021-025-026-031-171200-
SOUTHWEST ARIZONA

CITY           SKY/WX    TMP DP  RH WIND       PRES   REMARKS
YUMA           PTCLDY    84  71  65 W6        29.73S
$$

CAZ031-033-041-043-047-048-061-171200-
SOUTHERN CALIFORNIA

CITY           SKY/WX    TMP DP  RH WIND       PRES   REMARKS
DOWNTOWN L.A.  CLEAR     77  62  59 CALM      29.71S
L.A. AIRPORT   CLEAR     74  64  71 CALM      29.71F
SAN DIEGO      PTCLDY    77  71  82 CALM      29.72S
BURBANK        CLEAR     82  57  42 CALM      29.74S
ONTARIO        CLEAR     82  66  58 N3        29.76S
RIVERSIDE      CLEAR     85  66  53 S3        29.75F
PALM SPRINGS   CLEAR     87  67  51 N5        29.76F
EL CENTRO NAS  CLEAR     83  61  47 N3        29.71F
IMPERIAL       CLEAR     87  64  46 CALM      29.71F
BLYTHE         CLEAR     81  71  71 NW5       29.75F
$$

NVZ020-UTZ003-171200-
SOUTHERN NEVADA-UTAH

CITY           SKY/WX    TMP DP  RH WIND       PRES   REMARKS
LAS VEGAS      NOT AVBL
SALT LAKE CITY PTCLDY    71  43  36 S14       29.94S
$$

NMZ009-TXZ055-171200-
NEW MEXICO-WEST TEXAS

CITY           SKY/WX    TMP DP  RH WIND       PRES   REMARKS
ALBUQUERQUE    CLOUDY    62  55  77 CALM      30.17F
EL PASO        CLOUDY    69  63  81 N12       30.05S
$$


........................KEY........................
SKY/WX - SKY CONDITION/WEATHER
TMP    - TEMPERATURE IN FAHRENHEIT
DP     - DEW POINT IN FAHRENHEIT
RH     - RELATIVE HUMIDITY IN PERCENT
WIND   - DIRECTION AND SPEED IN MILES PER HOUR (MPH)
VRB    - VARIABLE WIND DIRECTION
PRES   - MEAN SEA LEVEL PRESSURE IN INCHES OF MERCURY
         F - FALLING PRESSURE   R - RISING PRESSURE
         S - STEADY PRESSURE
VSB    - VISIBILITY IN MILES
HX     - HEAT INDEX IN FAHRENHEIT
WCI    - WIND CHILL INDEX IN FAHRENHEIT
TC     - TEMPERATURE IN CELSIUS WHICH IS ALSO KNOWN AS
         TEMPERATURE IN CENTIGRADE
AFB    - AIR FORCE BASE
         LUKE AFB IS LUKE AIR FORCE BASE
         DAVIS-MONTHAN IS DAVIS-MONTHAN AIR FORCE BASE
NAS    - NAVAL AIR STATION
         EL CENTRO NAS IS EL CENTRO NAVAL AIR STATION
N/A    - NOT AVAILABLE


USA.gov is the U.S. government's official web portal to all federal, state and local government web resources and services.